Location: American Medical Response
(33.3472°N, 96.5511°W)
Time: 16:03:16
(UTC+00:00)

SJ 16-02 - Pass Details

Date: 08 July 2022
Orbit: 604 x 615 km, 75.0° (Epoch: 14 August)

Event Time Altitude Azimuth Distance (km) Brightness Sun altitude
Rises 06:04:39 0° 339° (NNW) 2,888 5.8 -33.8°
Reaches altitude 10° 06:06:56 10° 335° (NNW) 1,978 4.7 -33.9°
Enters shadow 06:08:27 21° 330° (NNW) 1,398 3.7 -33.9°
